STARLINK-2265 (48002 NORAD) Tracking and Keplerian Element Data

This shows tracking and keplerian element data for the satellite.

Feedback or suggestion? Click here.




ElementValue
Catalog48002
NameSTARLINK-2265
Epoch Orbit197
Epoch Day170.58334491
Epoch Year2021
RAAN130.8518
Inclination53.0482
Eccentricity0.0002078
Argument of Perigee28.4431
Mean Anonmoly313.2682
Mean Motion15.72903123
Decay Rate0.0048841
L11 48002U 21024AB 21170.58334491 .00488410 00000-0 33273-2 0 9996
L22 48002 53.0482 130.8518 0002078 28.4431 313.2682 15.72903123 1978

Live tracking and technical data element details for STARLINK-2265 (NORAD 48002). STARLINK-2265 can be tracked NOW for your location showing map with azimuth and elevation plus other details from your city location.

Track the satellite on the map from your city or location and see movement details for azimuth, elevation, latitude, longitude, range, height, and movement on the map or in text.







IsCatalogInMostPopularTable: catalog: 48002, numindb: 38
Update: records affected: 1



GetName: 48002 STARLINK-2265

Hit Count: updated at: Mon, 21 Jun 2021 04:07:27 GMT